Weather History for Dakar, Senegal

Change the Weather History Date:

Saturday, January 19, 2013

  Actual Average Record
Temperature  
Mean Temperature 71 °F -  
Max Temperature 76 °F 77 °F 91 °F (2008)
Min Temperature 66 °F 62 °F 60 °F (2006)
Cooling Degree Days 6    
Growing Degree Days 21 (Base 50)    
Moisture  
Dew Point 56 °F    
Average Humidity 64    
Maximum Humidity 85    
Minimum Humidity 38    
Precipitation  
Precipitation 0.00 in 0.00 in - ()
Sea Level Pressure  
Sea Level Pressure 29.91 in    
Wind  
Wind Speed 11 mph ()    
Max Wind Speed 17 mph    
Max Gust Speed -    
Visibility 5.5 miles    
Events      
Averages and records for this station are not official NWS values.
T = Trace of Precipitation, MM = Missing Value Source: Averaged Metar Reports

Daily Weather History Graph

Daily Weather History Graph

Search for Another Location

Airport:

Trip Planner

Search our weather history database for the weather conditions in past years. The results will help you decide how hot, cold, wet, or windy it might be!

Date:

Astronomy

Jan. 19, 2013 Rise Set
Actual Time 7:39 AM GMT 7:02 PM GMT
Civil Twilight 7:16 AM GMT 7:25 PM GMT
Nautical Twilight 6:50 AM GMT 7:51 PM GMT
Astronomical Twilight 6:24 AM GMT 8:17 PM GMT
Moon 1:09 PM GMT (1/19) 1:17 AM GMT (1/19)
Length of Visible Light 12h 08m
Length of Day
11h 23m
First Quarter, 55% of the Moon is Illuminated
Jan 19
First Quarter
Jan 27
Full
Feb 3
Last Quarter
Feb 10
New
Feb 17
First Quarter

Hourly Weather History & Observations

Time (GMT) Temp. Dew Point Humidity Pressure Visibility Wind Dir Wind Speed Gust Speed Precip Events Conditions
12:00 AM 67 °F 64 °F 85% 29.95 in 5 mi North 10.4 mph - -   Clear
12:00 AM 68.0 °F 59.0 °F 73% 29.95 in - North 10.4 mph - N/A   Clear
12:30 AM 68.0 °F 59.0 °F 73% 29.92 in - North 10.4 mph - N/A   Clear
1:00 AM 68.0 °F 59.0 °F 73% 29.92 in - North 10.4 mph - N/A   Clear
1:30 AM 68.0 °F 59.0 °F 73% 29.92 in - North 10.4 mph - N/A   Clear
2:00 AM 66.2 °F 60.8 °F 83% 29.92 in - North 9.2 mph - N/A   Clear
2:30 AM 66.2 °F 60.8 °F 83% 29.89 in - NNE 9.2 mph - N/A   Clear
3:00 AM 66.2 °F 60.8 °F 83% 29.89 in - North 9.2 mph - N/A   Clear
3:30 AM 66.2 °F 60.8 °F 83% 29.89 in - NNE 8.1 mph - N/A   Clear
4:00 AM 66.2 °F 59.0 °F 78% 29.89 in - NNE 9.2 mph - N/A   Clear
4:30 AM 66.2 °F 57.2 °F 73% 29.89 in - NNE 10.4 mph - N/A   Clear
5:00 AM 66.2 °F 57.2 °F 73% 29.89 in - NNE 10.4 mph - N/A   Clear
5:30 AM 66.2 °F 55.4 °F 68% 29.89 in - NNE 11.5 mph - N/A   Clear
6:00 AM 67 °F 60 °F 72% 29.92 in 5 mi NNE 11.5 mph - -  
6:00 AM 66.2 °F 53.6 °F 64% 29.89 in - NNE 10.4 mph - N/A   Clear
6:30 AM 68.0 °F 50.0 °F 52% 29.89 in - NNE 12.7 mph - N/A   Clear
7:00 AM 68.0 °F 50.0 °F 52% 29.89 in - NNE 10.4 mph - N/A   Clear
7:30 AM 66.2 °F 50.0 °F 56% 29.92 in - NNE 10.4 mph - N/A   Clear
8:00 AM 68.0 °F 51.8 °F 56% 29.92 in - NNE 10.4 mph - N/A   Clear
8:30 AM 68.0 °F 50.0 °F 52% 29.92 in - NE 10.4 mph - N/A   Clear
9:00 AM 69.8 °F 50.0 °F 49% 29.95 in - NNE 12.7 mph - N/A   Clear
9:30 AM 69.8 °F 51.8 °F 53% 29.95 in - NNE 12.7 mph - N/A   Clear
10:00 AM 71.6 °F 55.4 °F 57% 29.98 in - NNE 11.5 mph - N/A   Clear
10:30 AM 71.6 °F 51.8 °F 50% 29.98 in - NNE 12.7 mph - N/A   Clear
11:00 AM 73.4 °F 46.4 °F 38% 29.98 in - NNE 13.8 mph - N/A   Clear
11:30 AM 73.4 °F 50.0 °F 44% 29.98 in - NNE 13.8 mph - N/A   Clear
12:00 PM 71 °F 56 °F 50% 29.99 in 6 mi NNE 17.3 mph - -   Scattered Clouds
12:00 PM 73.4 °F 50.0 °F 44% 29.98 in - NNE 15.0 mph - N/A   Clear
12:30 PM 73.4 °F 50.0 °F 44% 29.95 in - NNE 15.0 mph - N/A   Clear
1:00 PM 73.4 °F 51.8 °F 47% 29.95 in - NNE 15.0 mph - N/A   Clear
1:30 PM 73.4 °F 48.2 °F 41% 29.92 in - NNE 13.8 mph - N/A   Clear
2:00 PM 73.4 °F 50.0 °F 44% 29.89 in - North 16.1 mph - N/A   Clear
2:30 PM 75.2 °F 51.8 °F 44% 29.89 in - North 17.3 mph - N/A   Clear
3:00 PM 73.4 °F 51.8 °F 47% 29.89 in - North 15.0 mph - N/A   Clear
3:30 PM 75.2 °F 53.6 °F 47% 29.86 in - North 15.0 mph - N/A   Clear
4:00 PM 73.4 °F 55.4 °F 53% 29.86 in - North 16.1 mph - N/A   Clear
4:30 PM 73.4 °F 55.4 °F 53% 29.86 in - North 16.1 mph - N/A   Clear
5:00 PM 73.4 °F 55.4 °F 53% 29.86 in - North 17.3 mph - N/A   Clear
5:30 PM 71.6 °F 57.2 °F 60% 29.86 in - North 15.0 mph - N/A   Clear
6:00 PM 72 °F 63 °F 66% 29.90 in 6 mi North 10.4 mph - -   Clear
6:00 PM 71.6 °F 57.2 °F 60% 29.86 in - North 12.7 mph - N/A   Clear
6:30 PM 69.8 °F 59.0 °F 68% 29.86 in - North 11.5 mph - N/A   Clear
7:00 PM 69.8 °F 59.0 °F 68% 29.86 in - North 12.7 mph - N/A   Clear
7:30 PM 68.0 °F 59.0 °F 73% 29.86 in - North 12.7 mph - N/A   Clear
8:00 PM 68.0 °F 60.8 °F 78% 29.89 in - North 12.7 mph - N/A   Clear
8:30 PM 68.0 °F 60.8 °F 78% 29.89 in - North 11.5 mph - N/A   Clear
9:00 PM 68.0 °F 60.8 °F 78% 29.89 in - North 12.7 mph - N/A   Clear
9:30 PM 68.0 °F 60.8 °F 78% 29.92 in - North 11.5 mph - N/A   Clear
10:00 PM 68.0 °F 62.6 °F 83% 29.92 in - North 11.5 mph - N/A   Clear
10:30 PM 66.2 °F 60.8 °F 83% 29.92 in - NNE 12.7 mph - N/A   Clear
11:00 PM 66.2 °F 60.8 °F 83% 29.92 in - NNE 11.5 mph - N/A   Clear
11:30 PM 66.2 °F 60.8 °F 83% 29.92 in - North 10.4 mph - N/A   Clear